Find Starlink 4796

NORAD ID: 53909 Int'l Des: 2022-119 Owner: SPXS Country: US Constellation: starlink operational
LEOCIRCULAR

現在のビュー

3D地球を読み込み中...

About Starlink 4796

Starlink 4796 (NORAD 53909) is a starlink constellation satellite (v1.5) launched Sep 24, 2022 by SPXS of US. It operates in LEO, CIRCULAR orbit with a mass of 305.00 kg.

次回通過

Passes for default location (London). Set your location on the main map for personalized predictions.

高度履歴

Loading altitude history...

軌道要素

1 53909U 22119Z 26255.12197794 .00001187 00000-0 47401-4 0 9998
2 53909 53.1611 194.9502 0001219 82.7281 277.3860 15.33551118219992
Epoch: Sep 12, 2026 • Age: 21 hours

現在のステータス

高度 470.2 km
遠地点 / 近地点 N/A
速度 7.64 km/s
衛星直下点 49.85°N, 39.03°W
打ち上げ日 Sep 24, 2022
運用期間 3.9 years
タイプ internet

技術仕様

分類 Payload
質量 305.00 kg
乾燥質量 290.00 kg
総質量 305.00 kg
長さ 0.20 m
直径 2.80 m
スパン 9.00 m
形状 Box + pan
製造者 SPXS
バスタイプ Starlink
フェーズステータス In Orbit
所有者/国 SPXS/US

Most Searched